MDT,Max TemperatureF,Mean TemperatureF,Min TemperatureF,Max Dew PointF,MeanDew PointF,Min DewpointF,Max Humidity, Mean Humidity, Min Humidity, Max Sea Level PressureIn, Mean Sea Level PressureIn, Min Sea Level PressureIn, Max VisibilityMiles, Mean VisibilityMiles, Min VisibilityMiles, Max Wind SpeedMPH, Mean Wind SpeedMPH, Max Gust SpeedMPH,PrecipitationIn, CloudCover, Events, WindDirDegrees
2012-10-1,71,52,33,37,28,21,87,56,19,30.44,30.34,30.22,10,10,10,13,5,17,0.00,0,,7
2012-10-2,71,50,28,28,24,18,86,48,13,30.20,30.09,29.96,10,10,10,23,8,40,0.00,0,,295
2012-10-3,55,44,30,21,14,3,64,29,14,30.28,30.10,29.95,10,10,10,21,14,26,0.00,0,,230
2012-10-4,53,34,15,19,16,10,93,56,18,30.28,30.21,30.08,10,10,10,17,7,21,0.00,2,,11
2012-10-5,48,34,19,25,15,-6,86,55,10,30.24,30.18,30.14,10,10,10,16,10,22,0.00,1,,4
2012-10-6,48,32,15,12,4,-11,79,42,9,30.31,30.23,30.14,10,10,10,14,8,17,0.00,1,,11
2012-10-7,55,34,14,16,10,3,73,46,15,30.24,30.18,30.09,10,10,10,9,3,,0.00,0,,37
2012-10-8,60,38,15,27,11,3,86,46,13,30.13,30.06,29.94,10,10,10,16,6,18,0.00,0,,318
2012-10-9,59,40,21,45,15,7,68,47,22,30.14,30.07,29.99,10,10,10,14,6,20,0.00,0,,12
2012-10-10,66,44,21,21,18,12,86,52,13,30.18,30.10,30.00,10,10,10,12,5,17,0.00,1,,10
2012-10-11,69,53,37,27,20,16,53,38,16,30.12,30.06,30.02,10,10,10,14,7,21,0.00,4,,5
2012-10-12,69,48,28,30,27,23,86,53,23,30.08,30.01,29.88,10,10,10,10,4,,0.00,3,,12
2012-10-13,53,42,32,41,34,28,87,66,47,30.29,30.11,29.97,10,10,10,17,5,23,0.00,4,,224
2012-10-14,60,45,30,39,33,28,100,71,29,30.40,30.30,30.24,10,10,10,14,7,18,0.00,1,,203
2012-10-15,55,45,35,43,36,32,93,70,44,30.23,30.12,30.04,10,10,9,20,9,25,0.00,3,,190
2012-10-16,53,45,37,45,32,10,100,62,31,30.05,29.88,29.65,10,10,6,29,11,41,0.00,6,Rain-Thunderstorm,219
2012-10-17,44,38,33,19,13,9,56,39,25,30.21,30.08,29.93,10,10,10,30,14,40,0.00,2,,233
2012-10-18,53,37,21,27,19,12,93,59,22,30.32,30.26,30.21,10,10,10,14,5,,0.00,0,,358
2012-10-19,57,39,21,34,25,19,100,72,25,30.25,30.12,29.94,10,10,10,21,7,28,0.00,2,,9
2012-10-20,55,50,46,37,29,23,58,44,33,29.92,29.82,29.76,10,10,10,23,10,34,0.00,7,Rain,198
2012-10-21,51,42,33,30,28,25,81,56,35,29.87,29.83,29.79,10,10,10,13,8,17,0.00,7,,189
2012-10-22,39,36,33,37,33,30,100,89,70,29.85,29.78,29.64,10,8,0,13,4,17,0.05,8,Rain-Snow,201
2012-10-23,37,32,26,34,28,25,100,85,60,29.94,29.84,29.73,10,10,5,21,8,29,0.12,7,Snow,185
2012-10-24,37,29,21,25,22,12,100,80,36,30.06,29.98,29.93,10,10,10,8,3,,0.00,4,,173
2012-10-25,37,29,21,27,21,19,100,89,64,30.31,30.13,30.06,10,8,1,13,1,,0.01,6,Snow,201
2012-10-26,32,24,17,27,23,18,100,90,60,30.36,30.26,30.12,10,8,1,18,4,29,0.00,7,Snow,189
2012-10-27,37,32,26,32,27,25,100,87,65,30.12,30.10,30.08,10,8,2,16,8,23,0.01,8,Snow,194
2012-10-28,44,38,33,41,36,32,100,94,76,30.13,30.11,30.07,10,8,2,17,5,23,0.09,8,Rain-Snow,214
2012-10-29,55,48,42,41,36,28,93,68,38,30.21,30.16,30.12,10,10,10,20,9,24,0.00,6,,200
2012-10-30,57,44,30,34,30,27,93,63,31,30.26,30.21,30.17,10,10,10,12,5,23,0.00,1,,210
2012-10-31,62,44,26,32,29,25,100,78,26,30.27,30.19,30.10,10,10,10,10,6,,0.00,0,,9